Temp
74 77 77 78 78 78 78 78 78 78 78 79 79 79 79 78 79 78 79 79 79 80 80 81 80 80 80 79 79 78 78 77 77 77 76 77 78 78 78 77 78 81 78
76 78 77 78 78 79 79 78 77 77 78 78 79 79 79 79 79 79 79 79 80 80 80 80 80 80 79 79 78 77 77 76 75 74 74 74 75 78 78 77 77 79 78
77 78 79 77 78 78 79 78 77 77 78 79 79 79 79 79 79 79 79 79 80 80 80 79 79 79 78 77 77 77 76 75 74 73 74 81 80 77 78 77 77 78 78
78 79 79 76 77 78 78 78 77 77 78 78 79 78 78 79 78 79 79 79 79 79 78 78 77 77 77 76 76 76 75 74 73 73 80 82 81 77 78 78 78 78 78
77 79 78 76 77 77 77 77 77 78 78 78 78 78 78 78 78 78 78 78 77 77 77 77 76 76 76 76 76 75 75 73 72 77 80 79 80 79 78 78 78 77 77
77 79 76 76 77 77 77 77 77 78 78 77 77 77 78 78 78 78 77 76 76 76 76 76 76 75 75 75 76 75 74 72 73 80 80 77 79 78 78 77 77 77 76
77 77 77 76 76 77 77 77 77 77 78 77 77 77 77 77 77 76 75 75 75 75 76 76 76 75 75 75 75 74 72 70 79 79 79 79 79 78 78 77 77 77 77
77 75 77 74 75 76 76 76 77 77 77 76 76 77 77 76 76 75 75 75 75 76 76 76 75 75 74 74 73 72 70 70 76 78 78 79 76 78 78 77 76 76 76
76 74 77 77 76 73 74 75 75 76 75 75 75 75 75 74 74 75 75 75 75 76 75 75 75 74 74 73 72 70 69 68 78 77 78 79 75 78 77 76 76 76 76
73 73 75 77 77 77 77 72 72 72 73 73 73 72 70 70 71 73 72 73 74 75 74 74 74 73 72 71 70 68 67 68 76 76 77 78 76 77 77 76 76 76 75
71 72 74 75 76 76 76 73 71 70 70 70 70 67 69 75 76 75 71 70 72 73 73 73 72 71 69 68 68 68 68 73 74 76 77 73 76 77 76 76 76 76 75
69 70 73 75 75 75 75 74 76 74 75 75 72 73 74 74 75 74 69 68 70 70 71 71 69 67 67 69 68 67 69 70 72 75 76 73 76 77 76 76 75 75 75
71 70 72 74 76 75 74 74 74 73 73 72 72 72 72 71 71 71 70 72 69 67 69 66 65 67 69 68 68 68 69 71 73 73 69 70 75 77 76 75 75 74 74
69 70 70 73 74 73 73 73 72 71 71 70 71 71 71 70 69 68 69 69 66 66 63 65 64 66 67 69 67 67 67 68 67 66 66 65 72 76 76 75 75 74 74
69 69 70 72 72 72 71 72 72 71 71 70 70 71 71 69 68 68 66 66 64 62 64 63 63 64 64 65 64 65 66 65 64 64 65 63 67 73 76 75 75 74 74
70 69 70 72 72 71 71 71 71 71 70 71 70 70 70 69 66 67 64 63 61 62 63 62 63 62 61 62 63 65 64 62 62 62 63 69 64 67 73 75 75 75 75
60 69 69 71 71 70 70 70 70 72 70 69 69 70 70 67 66 65 64 62 59 60 60 59 59 59 58 59 59 61 63 60 60 62 64 67 67 63 65 73 75 75 75
55 63 70 69 70 69 69 69 69 69 69 70 68 69 69 67 67 64 63 60 58 58 59 59 57 55 55 57 56 56 57 58 59 61 62 63 64 66 66 69 71 72 73
52 56 69 67 68 68 69 68 68 67 68 69 68 67 67 66 65 63 62 58 58 57 58 59 57 59 55 55 54 55 55 56 57 59 60 62 63 64 67 66 67 67 70
50 54 61 68 68 67 67 67 66 66 67 68 67 66 66 65 64 62 59 57 58 57 56 57 58 58 56 55 54 53 55 55 55 55 56 57 58 59 64 67 67 65 65
48 49 53 59 66 66 66 65 64 64 65 65 66 66 65 64 62 60 59 58 58 57 56 57 56 55 53 56 54 53 53 54 53 52 53 54 54 55 59 65 67 66 66
43 45 48 52 57 64 66 66 65 65 65 66 65 65 65 63 62 61 59 57 58 56 55 55 57 53 54 57 59 56 52 53 52 52 52 51 52 53 55 60 63 66 67
40 42 45 48 53 57 64 64 62 63 63 62 63 63 64 64 62 61 60 58 58 57 55 55 57 59 54 56 58 61 53 54 51 50 51 50 50 52 53 56 58 66 63
39 41 44 46 50 54 58 63 63 62 60 63 64 64 63 63 62 61 60 59 58 58 56 56 56 58 60 55 54 54 56 59 56 50 50 50 49 50 52 53 56 57 62
39 39 42 44 47 48 52 60 62 62 62 62 63 62 62 62 62 61 60 60 58 58 58 56 55 56 60 61 60 53 54 55 56 55 48 48 49 50 49 50 52 55 61
38 38 39 42 43 45 47 50 60 61 62 61 61 61 61 61 61 61 60 60 60 59 57 57 57 56 58 60 60 56 57 58 56 56 52 48 50 49 50 50 51 53 56
MSLP
1011.40 1011.68 1012.18 1012.56 1012.96 1013.34 1013.71 1014.05 1014.40 1014.75 1015.11 1015.42 1015.72 1016.03 1016.36 1016.65 1016.85 1017.03 1017.16 1017.30 1017.46 1017.56 1017.65 1017.83 1017.99 1018.20 1018.43 1018.68 1018.95 1019.18 1019.31 1019.43 1019.60 1019.75 1019.87 1020.00 1020.11 1020.25 1020.45 1020.36 1020.30 1020.41 1020.79
1010.61 1011.30 1011.93 1012.46 1012.93 1013.29 1013.69 1014.13 1014.44 1014.79 1015.18 1015.53 1015.84 1016.19 1016.48 1016.76 1017.07 1017.22 1017.41 1017.51 1017.62 1017.79 1017.88 1018.19 1018.33 1018.58 1018.82 1019.11 1019.43 1019.65 1019.84 1020.04 1020.19 1020.35 1020.43 1020.53 1020.68 1020.71 1020.87 1020.80 1020.71 1020.99 1021.11
1010.50 1011.19 1011.83 1012.37 1012.87 1013.29 1013.66 1014.12 1014.58 1014.91 1015.26 1015.60 1015.98 1016.27 1016.60 1016.87 1017.21 1017.38 1017.66 1017.78 1017.85 1018.09 1018.24 1018.59 1018.78 1019.07 1019.40 1019.68 1019.95 1020.14 1020.30 1020.54 1020.67 1020.83 1020.85 1020.65 1021.03 1021.10 1021.23 1021.18 1021.21 1021.39 1021.54
1010.43 1011.19 1011.72 1012.34 1012.77 1013.26 1013.67 1014.06 1014.55 1014.98 1015.38 1015.70 1016.03 1016.39 1016.66 1017.02 1017.33 1017.60 1017.90 1018.06 1018.21 1018.38 1018.61 1018.93 1019.30 1019.73 1019.91 1020.15 1020.34 1020.57 1020.76 1020.95 1021.04 1021.12 1020.92 1020.95 1021.28 1021.58 1021.57 1021.56 1021.59 1021.76 1021.91
1010.38 1010.94 1011.68 1012.24 1012.77 1013.24 1013.64 1014.04 1014.48 1014.92 1015.43 1015.79 1016.16 1016.53 1016.83 1017.13 1017.41 1017.78 1018.09 1018.37 1018.64 1018.80 1019.07 1019.42 1019.76 1020.10 1020.25 1020.58 1020.74 1020.98 1021.23 1021.38 1021.40 1021.33 1021.35 1021.54 1021.52 1021.73 1021.84 1022.00 1022.11 1022.25 1022.37
1010.56 1010.93 1011.73 1012.18 1012.73 1013.17 1013.69 1014.07 1014.39 1014.87 1015.38 1015.88 1016.29 1016.67 1016.95 1017.24 1017.58 1017.98 1018.26 1018.65 1018.95 1019.25 1019.59 1019.82 1020.11 1020.34 1020.58 1020.90 1021.11 1021.36 1021.61 1021.74 1021.66 1021.51 1021.60 1021.93 1021.98 1022.14 1022.25 1022.44 1022.58 1022.70 1022.81
1010.51 1010.95 1011.76 1012.28 1012.77 1013.25 1013.65 1014.09 1014.48 1014.84 1015.38 1015.95 1016.36 1016.77 1017.10 1017.47 1017.84 1018.22 1018.48 1018.86 1019.28 1019.64 1019.88 1020.15 1020.39 1020.63 1020.93 1021.11 1021.48 1021.74 1021.93 1022.04 1021.86 1021.94 1022.13 1022.24 1022.27 1022.41 1022.54 1022.67 1022.85 1023.01 1023.12
1010.40 1011.07 1011.68 1012.37 1012.74 1013.38 1013.75 1014.15 1014.50 1014.94 1015.47 1015.99 1016.51 1016.86 1017.29 1017.65 1018.15 1018.50 1018.80 1019.07 1019.43 1019.84 1020.10 1020.44 1020.75 1020.92 1021.23 1021.45 1021.79 1022.10 1022.31 1022.35 1022.26 1022.42 1022.50 1022.58 1022.73 1022.71 1022.85 1023.00 1023.22 1023.35 1023.51
1010.77 1011.28 1011.83 1012.37 1012.92 1013.39 1013.91 1014.32 1014.55 1014.98 1015.55 1016.09 1016.58 1016.96 1017.51 1017.92 1018.28 1018.79 1019.09 1019.30 1019.69 1020.00 1020.32 1020.66 1021.05 1021.28 1021.57 1021.85 1022.14 1022.45 1022.58 1022.69 1022.56 1022.74 1022.80 1022.86 1023.04 1023.04 1023.16 1023.33 1023.51 1023.64 1023.85
1011.16 1011.67 1011.85 1012.39 1012.85 1013.34 1013.93 1014.37 1014.74 1015.02 1015.60 1016.16 1016.69 1017.19 1017.69 1018.20 1018.49 1018.95 1019.34 1019.64 1019.89 1020.16 1020.58 1020.93 1021.28 1021.68 1021.93 1022.22 1022.48 1022.79 1022.91 1022.97 1023.01 1023.07 1023.15 1023.24 1023.31 1023.41 1023.55 1023.65 1023.84 1024.02 1024.19
1011.51 1011.77 1011.91 1012.31 1012.80 1013.22 1013.77 1014.42 1014.83 1015.24 1015.67 1016.28 1016.93 1017.48 1017.90 1018.35 1018.71 1019.18 1019.59 1019.97 1020.19 1020.52 1020.84 1021.23 1021.66 1022.11 1022.41 1022.64 1022.77 1023.11 1023.20 1023.31 1023.39 1023.39 1023.45 1023.51 1023.58 1023.75 1023.93 1024.02 1024.15 1024.35 1024.60
1011.36 1011.65 1011.77 1012.28 1012.65 1013.10 1013.63 1014.21 1014.71 1015.26 1015.70 1016.19 1016.89 1017.47 1017.93 1018.37 1018.91 1019.34 1019.89 1020.30 1020.51 1020.89 1021.20 1021.74 1022.15 1022.63 1022.75 1022.98 1023.11 1023.34 1023.56 1023.68 1023.73 1023.67 1023.72 1023.76 1023.81 1024.02 1024.22 1024.39 1024.55 1024.67 1024.89
1010.63 1011.33 1011.66 1012.06 1012.36 1012.79 1013.42 1014.01 1014.62 1015.13 1015.56 1016.13 1016.71 1017.34 1017.88 1018.49 1019.10 1019.62 1020.13 1020.69 1021.05 1021.36 1021.75 1022.35 1022.73 1022.96 1023.00 1023.26 1023.31 1023.54 1023.73 1023.81 1023.91 1023.99 1024.24 1024.11 1024.05 1024.25 1024.49 1024.69 1024.85 1024.95 1025.12
1011.01 1011.20 1011.71 1012.13 1012.46 1012.81 1013.52 1013.92 1014.47 1014.98 1015.57 1016.09 1016.65 1017.15 1017.69 1018.37 1019.06 1019.68 1020.12 1020.78 1021.41 1021.90 1022.40 1022.75 1022.99 1023.16 1023.37 1023.48 1023.56 1023.80 1023.95 1024.11 1024.31 1024.58 1024.68 1024.51 1024.36 1024.46 1024.67 1024.89 1025.03 1025.21 1025.33
1011.14 1011.20 1011.58 1012.06 1012.62 1012.97 1013.55 1013.92 1014.27 1014.81 1015.35 1015.99 1016.55 1017.02 1017.47 1018.21 1018.77 1019.45 1020.24 1020.87 1021.67 1022.26 1022.62 1022.95 1023.16 1023.41 1023.75 1023.91 1024.09 1024.18 1024.31 1024.67 1024.85 1024.99 1025.06 1024.94 1024.87 1024.69 1024.80 1025.01 1025.22 1025.39 1025.51
1010.90 1010.95 1011.29 1011.72 1012.22 1012.64 1013.35 1013.85 1014.03 1014.48 1015.32 1015.84 1016.41 1016.85 1017.37 1017.99 1018.70 1019.30 1020.15 1020.90 1021.84 1022.38 1022.78 1023.14 1023.33 1023.75 1024.14 1024.33 1024.54 1024.73 1024.88 1025.13 1025.29 1025.39 1025.39 1025.19 1025.24 1025.15 1025.01 1025.10 1025.23 1025.35 1025.51
1011.88 1010.25 1010.96 1011.48 1011.78 1012.74 1013.26 1013.56 1014.10 1014.31 1015.04 1015.62 1016.27 1016.79 1017.32 1017.88 1018.55 1019.38 1020.02 1020.86 1021.78 1022.51 1022.99 1023.38 1023.83 1024.23 1024.68 1024.99 1025.15 1025.35 1025.39 1025.63 1025.63 1025.61 1025.63 1025.53 1025.47 1025.47 1025.47 1025.27 1025.23 1025.31 1025.47
1012.40 1011.27 1010.52 1010.96 1011.51 1012.24 1013.12 1013.47 1013.82 1014.30 1014.79 1015.36 1016.02 1016.61 1017.14 1017.73 1018.38 1019.22 1019.98 1020.79 1021.64 1022.47 1023.04 1023.42 1023.87 1024.50 1025.01 1025.37 1025.79 1025.97 1026.04 1026.14 1026.07 1026.00 1025.92 1025.91 1025.82 1025.67 1025.58 1025.39 1025.48 1025.53 1025.61
1013.10 1011.75 1010.10 1010.36 1011.06 1011.86 1012.88 1013.31 1013.64 1014.21 1014.55 1015.13 1015.88 1016.41 1016.98 1017.68 1018.18 1018.98 1019.98 1020.79 1021.37 1022.19 1022.87 1023.46 1023.98 1024.24 1025.04 1025.67 1026.03 1026.39 1026.53 1026.56 1026.51 1026.35 1026.23 1026.19 1026.05 1025.84 1025.67 1025.44 1025.57 1025.80 1025.88
1013.60 1012.31 1010.91 1010.01 1010.61 1011.43 1012.74 1013.22 1013.61 1014.18 1014.51 1014.96 1015.57 1016.18 1016.85 1017.55 1018.16 1018.98 1020.00 1020.69 1021.41 1022.14 1022.98 1023.27 1023.82 1024.59 1025.13 1025.61 1026.18 1026.54 1026.86 1026.91 1026.98 1026.78 1026.69 1026.65 1026.39 1026.21 1025.80 1025.65 1025.71 1025.98 1026.13
1014.36 1013.34 1012.47 1011.52 1010.66 1011.29 1012.27 1012.95 1013.30 1013.54 1014.19 1014.77 1015.23 1015.87 1016.60 1017.39 1018.18 1018.86 1019.87 1020.74 1021.25 1021.75 1022.54 1023.23 1023.77 1024.43 1025.44 1025.64 1025.97 1026.74 1027.12 1027.13 1027.32 1027.27 1027.16 1026.96 1026.69 1026.52 1025.95 1025.68 1025.78 1026.02 1026.32
1015.55 1015.05 1013.54 1013.00 1012.21 1011.49 1011.91 1012.47 1012.98 1013.06 1013.90 1014.29 1014.73 1015.54 1016.22 1016.92 1017.74 1018.61 1019.39 1020.27 1020.94 1021.61 1022.44 1022.89 1023.29 1024.15 1024.89 1025.23 1025.10 1025.90 1026.81 1027.33 1027.32 1027.40 1027.35 1027.25 1026.91 1026.64 1026.32 1025.80 1025.81 1025.97 1026.29
1016.71 1015.91 1015.12 1013.74 1013.26 1012.23 1011.57 1012.21 1012.60 1013.13 1013.83 1014.33 1014.74 1015.25 1015.81 1016.35 1017.28 1018.08 1018.93 1019.55 1020.35 1021.13 1021.65 1022.34 1022.81 1023.02 1023.70 1024.64 1024.58 1024.58 1025.79 1026.03 1026.86 1027.35 1027.33 1027.30 1027.11 1026.85 1026.42 1026.10 1026.04 1025.92 1026.40
1018.03 1017.11 1016.09 1014.79 1013.80 1012.82 1012.28 1012.02 1012.38 1013.15 1013.35 1013.71 1014.27 1014.77 1015.42 1015.94 1016.68 1017.46 1018.17 1018.95 1019.53 1020.30 1020.94 1021.53 1022.01 1022.60 1023.01 1023.52 1024.48 1024.53 1024.32 1024.39 1025.45 1026.85 1027.19 1027.24 1027.19 1027.00 1026.67 1026.53 1026.09 1026.21 1026.31
1018.21 1017.85 1016.46 1015.70 1014.34 1013.86 1013.13 1012.39 1012.03 1012.90 1013.08 1013.54 1013.95 1014.70 1015.07 1015.64 1016.14 1016.85 1017.64 1018.34 1018.92 1019.57 1020.40 1020.91 1021.38 1021.93 1022.35 1022.64 1022.88 1023.97 1024.31 1024.47 1024.51 1025.02 1026.29 1027.01 1027.25 1027.22 1027.03 1026.89 1026.68 1026.40 1026.24
1019.19 1018.06 1016.57 1017.20 1015.65 1014.07 1014.23 1013.29 1012.67 1012.52 1012.87 1013.48 1013.71 1014.15 1014.59 1015.32 1015.89 1016.32 1016.84 1017.60 1018.21 1018.75 1019.57 1020.21 1020.63 1021.18 1021.65 1022.06 1022.41 1022.80 1022.78 1023.23 1023.67 1024.00 1025.16 1026.17 1026.54 1026.99 1027.25 1027.00 1026.76 1026.50 1026.34
Wind_Speed
13 17 21 20 19 19 17 16 16 16 17 17 17 18 17 16 16 15 14 15 15 16 19 19 20 21 21 21 21 20 18 18 17 18 17 18 19 21 20 18 18 19 21
15 19 22 21 20 21 19 16 15 16 17 17 16 17 17 16 16 15 14 14 16 17 19 19 20 20 21 21 20 19 20 19 17 16 15 14 16 18 19 16 19 20 22
19 19 21 22 23 22 21 18 16 16 17 17 17 17 17 16 15 15 14 15 16 18 19 19 19 20 19 19 18 19 19 18 16 14 10 13 15 17 19 16 18 19 21
20 17 20 22 22 22 20 19 18 17 16 17 17 16 17 16 16 15 14 15 17 17 18 19 19 18 18 17 17 18 18 17 14 10 11 13 14 17 18 18 19 19 19
21 19 17 22 22 21 21 20 19 19 17 17 17 16 16 17 17 16 16 16 17 17 18 18 18 16 17 16 17 17 17 15 11 12 13 11 11 15 18 18 18 18 16
19 18 19 22 21 21 20 20 19 19 18 17 17 16 16 17 18 17 16 17 17 17 16 17 17 16 16 16 17 17 16 13 10 12 12 11 11 17 18 17 16 17 18
20 14 19 21 20 20 20 20 19 19 17 16 17 16 17 17 18 17 18 17 17 16 16 16 17 17 15 16 16 15 14 10 11 12 11 10 12 16 16 16 16 16 18
18 14 18 18 20 19 18 20 19 19 17 16 16 16 16 17 17 17 18 18 17 16 16 16 16 17 16 17 15 14 11 9 10 10 10 10 10 16 16 16 16 16 17
12 13 15 16 16 17 14 16 18 18 17 16 16 16 15 16 17 17 17 17 16 16 17 16 16 16 17 16 15 13 11 9 9 7 9 8 12 16 16 18 17 18 18
11 11 14 15 16 16 14 11 13 15 16 14 13 13 13 13 14 15 14 15 15 16 17 17 17 17 17 16 15 14 12 10 8 8 7 7 13 15 15 17 17 19 18
8 10 13 14 15 15 14 11 13 15 15 14 13 13 12 10 14 16 12 13 15 18 18 18 18 17 16 15 15 13 8 5 6 5 5 10 13 15 15 15 17 17 17
12 12 14 16 14 14 10 12 12 12 11 11 10 12 9 11 11 11 12 12 13 13 16 18 18 16 13 8 7 8 5 6 5 5 4 8 13 15 15 13 15 17 18
19 11 14 15 14 14 11 9 7 6 8 8 12 10 10 8 9 7 7 8 8 10 7 9 8 6 9 7 7 6 7 6 4 4 7 3 13 15 15 14 14 16 17
14 12 13 15 13 12 8 8 8 8 7 7 9 11 9 7 8 8 6 8 6 5 7 7 6 9 9 9 8 8 7 5 4 3 6 11 6 13 13 12 14 15 16
14 13 13 15 12 10 10 8 9 9 8 8 9 11 10 9 9 8 7 7 6 6 6 7 7 7 8 8 7 7 7 7 6 3 3 11 9 7 11 12 12 15 15
18 14 14 16 14 11 12 11 9 9 8 9 8 9 11 9 8 9 8 8 7 6 6 6 7 7 6 7 8 7 7 6 6 5 3 4 8 7 7 12 13 16 16
11 19 14 16 15 13 12 11 8 10 9 9 8 11 11 9 10 10 8 8 7 6 9 8 7 7 6 5 8 6 6 6 5 5 4 3 3 6 5 10 13 15 16
13 10 19 15 15 15 12 9 9 8 8 9 8 9 12 12 13 10 9 8 8 7 7 8 7 6 5 5 5 5 4 4 5 5 4 3 3 2 3 6 9 13 16
14 14 15 15 18 16 13 9 9 11 9 8 8 8 11 12 12 10 7 8 10 8 7 8 7 8 7 6 6 5 4 4 4 3 4 4 4 2 3 7 9 10 13
14 13 8 11 16 16 10 9 7 8 8 8 8 8 11 9 11 10 8 10 10 8 6 7 10 8 6 7 7 6 4 4 3 4 3 3 3 4 3 4 5 4 9
16 16 13 9 5 11 9 10 10 11 9 9 9 11 12 10 11 11 8 9 9 10 10 9 9 12 6 8 7 5 4 4 4 3 3 3 3 4 4 4 4 4 5
16 15 14 12 8 4 10 10 7 9 7 8 9 10 12 14 14 12 12 11 10 9 10 11 11 6 3 8 4 4 3 1 2 3 2 2 3 2 3 4 5 8 8
16 16 14 13 10 8 8 5 2 5 5 4 7 8 11 14 14 13 13 12 12 10 10 12 11 12 7 8 8 3 4 4 3 0 2 2 3 1 2 2 4 11 7
15 14 13 13 10 10 9 8 10 7 6 5 8 7 9 14 14 15 15 14 13 10 12 12 10 8 9 11 4 3 0 4 4 3 1 0 2 1 1 2 2 5 8
16 14 13 14 12 13 11 6 8 8 6 4 5 8 9 10 14 14 15 15 14 11 12 14 13 11 8 9 7 4 2 1 2 4 3 3 1 2 1 0 1 3 7
14 14 13 16 12 15 13 14 3 7 8 7 8 7 8 8 9 14 15 14 13 13 14 13 13 14 11 9 8 6 6 6 5 4 3 2 3 2 2 2 2 3 4
Wind_Direction
183 170 165 160 159 155 147 142 136 134 137 138 138 136 132 126 123 119 115 116 120 117 115 112 111 109 108 108 106 103 97 94 92 89 94 100 97 96 93 90 95 95 89
155 166 161 159 159 161 155 145 139 136 137 138 140 142 138 132 130 125 122 123 120 120 116 114 110 105 107 105 102 101 99 95 87 85 88 91 93 98 96 92 96 96 93
157 163 160 159 163 162 160 150 146 144 146 149 146 144 141 136 134 130 131 127 119 116 112 113 106 101 105 107 106 103 101 96 87 83 91 103 100 100 102 97 97 97 98
154 164 162 161 162 163 160 152 150 148 151 149 150 146 143 142 138 133 133 126 119 118 110 104 105 108 107 105 104 103 102 99 91 95 105 107 107 107 104 100 97 101 101
158 164 162 161 162 161 156 153 153 152 152 150 149 148 147 143 138 136 133 127 113 106 104 110 112 112 109 107 107 107 107 100 87 105 102 105 108 105 102 98 101 102 104
161 163 163 161 162 158 155 154 153 149 153 150 147 148 147 144 140 137 127 117 113 112 117 117 116 113 110 110 113 112 109 102 109 108 105 97 104 104 104 106 102 111 110
164 158 164 161 161 159 162 156 154 150 150 148 144 148 147 144 137 132 125 121 120 123 125 121 119 115 114 113 115 114 110 95 115 112 109 107 109 111 110 115 110 108 110
161 158 162 161 157 159 157 159 156 152 146 145 149 149 147 141 136 130 131 127 127 129 127 126 123 118 112 118 111 107 98 105 115 112 115 113 115 115 112 111 111 110 109
157 161 160 162 155 153 162 156 157 150 147 147 151 146 144 136 135 133 134 128 133 134 128 125 121 118 118 117 111 105 94 90 116 115 115 117 121 116 113 113 113 113 113
151 166 162 163 159 160 164 158 154 138 140 143 142 136 131 134 134 132 127 126 128 129 126 122 117 119 122 113 102 92 86 90 112 120 120 122 124 119 117 117 116 114 114
160 174 168 167 163 162 163 161 140 137 135 133 131 124 131 146 141 139 124 125 125 121 120 119 123 120 110 104 98 101 89 102 104 121 128 124 125 123 121 118 122 117 114
178 180 171 174 168 164 164 160 154 150 152 150 139 143 144 139 139 134 121 113 115 115 117 120 118 119 115 114 103 89 92 107 100 109 123 137 130 126 122 123 124 124 120
180 175 178 178 170 164 165 161 160 154 153 150 146 147 141 129 133 128 124 122 112 108 110 111 116 120 124 126 111 106 107 103 96 86 41 111 133 131 130 130 130 130 126
178 173 179 176 172 166 164 172 160 159 155 151 152 150 148 142 141 137 137 131 123 120 121 134 127 121 116 120 111 107 100 90 77 68 50 37 133 138 140 137 138 135 134
190 170 173 171 167 173 167 174 162 159 160 157 158 160 156 151 149 137 136 128 122 126 142 133 127 121 113 109 97 99 93 82 72 68 64 46 41 151 152 150 150 146 144
187 176 172 174 162 169 176 184 167 162 159 161 159 163 159 153 144 144 138 131 123 138 141 133 130 123 110 111 102 98 92 83 70 62 45 57 41 39 170 158 164 153 150
299 178 176 178 163 173 180 181 172 168 161 159 162 162 161 147 147 146 141 140 132 137 133 122 108 106 103 94 96 90 86 71 69 59 47 38 18 38 346 180 168 164 158
321 281 181 178 175 172 184 183 166 162 167 162 160 163 159 152 151 147 147 142 136 139 142 135 130 110 107 101 101 77 75 64 61 51 44 31 11 1 316 202 176 163 157
334 319 202 180 177 170 182 173 171 173 169 160 159 161 159 159 153 148 162 138 139 140 145 146 137 137 133 122 107 87 66 61 49 38 30 15 349 327 273 168 162 168 169
350 342 336 191 171 176 177 172 169 167 164 160 167 164 161 156 149 144 144 141 143 143 145 148 146 137 138 128 111 87 65 58 45 43 9 352 348 309 271 167 167 160 170
5 358 358 348 196 155 166 178 174 171 173 171 171 164 154 147 150 143 149 156 155 158 160 154 134 142 134 143 117 98 72 71 56 36 11 360 345 317 281 154 162 149 155
2 349 352 357 1 188 183 185 187 170 183 176 171 163 158 160 158 155 157 162 167 156 155 162 161 149 122 184 145 127 144 149 85 34 24 357 344 327 300 131 152 145 145
358 348 344 351 340 354 219 152 124 134 143 163 163 164 173 167 164 162 168 165 167 164 169 175 177 179 156 194 209 150 153 195 143 357 27 27 348 344 346 87 148 149 144
348 343 334 352 0 2 337 180 167 195 178 181 182 174 174 170 172 170 172 172 172 176 177 182 179 183 176 181 193 229 356 143 165 172 228 333 354 320 24 15 135 141 147
355 336 347 346 12 9 358 289 177 192 177 147 175 169 185 178 181 176 177 176 177 180 185 183 180 188 192 191 188 156 165 98 110 142 162 191 253 246 289 206 284 198 149
353 354 5 343 1 25 5 354 303 203 177 173 166 183 183 182 185 187 178 183 184 184 186 188 189 191 194 200 196 188 176 170 180 162 143 144 177 193 238 239 246 219 154